User: anonymous   Login
Location: Innerarity Island Observatory
(30.3139°N, 87.4867°W)
Time: 11:40:20
(UTC-05:00)
Language:

OPAL - Orbit

View from above orbital plane
View from above orbital plane
View from above satellite
View from above satellite

Ground track
Ground track

The orbit data is extracted from the following two-line orbital elements,

1 26063U 00004C   14302.94522178  .00000218  00000-0  93671-4 0   980
2 26063 100.2258 113.8975 0037154 137.8829 222.5217 14.36426803773374
Epoch (UTC): 29 October 2014 22:41:07
Eccentricity: 0.0037154
inclination: 100.2258°
perigee height: 744 km
apogee height: 797 km
right ascension of ascending node: 113.8975°
argument of perigee: 137.8829°
revolutions per day: 14.36426803
mean anomaly at epoch: 222.5217°
orbit number at epoch: 77337

The dashed part of the orbit path shows where the satellite is in the earth's shadow,  

DLR